{"data":{"norad_id":68763,"intl_designator":"2026-083J","name":"COSMOS 2613","alt_names":[],"object_type":"PAYLOAD","status":"ACTIVE","operator":null,"country":"CIS","launch_date":"2026-04-16","launch_site_code":"PLMSC","launch_vehicle":null,"mission":null,"orbit_class":"UNKNOWN","rcs_meters":null,"size_class":null,"mass_kg":null,"dimensions":null,"purposes":[],"wikipedia_slug":null,"has_3d_model":false,"image_url":null,"decayed_at":null,"tle_current":{"epoch":"2026-09-19T23:29:49.547616Z","epoch_age_seconds":104691,"freshness":"FRESH","line1":"1 68763U 26083J   26262.97904569  .00001193  00000+0  86632-4 0  9998","line2":"2 68763  97.7944  41.9478 0008295  42.3998 317.7868 15.05842781 23471","mean_motion":15.05842781,"eccentricity":0.0008295,"inclination_deg":97.7944,"raan_deg":41.9478,"arg_perigee_deg":42.3998,"mean_anomaly_deg":317.7868,"bstar":8.6632e-5,"rev_number":2347,"period_min":95.627512922944,"perigee_km":543.17388683945,"apogee_km":554.66587420423,"semimajor_km":6927.0568805218,"source":"CELESTRAK","updated_at":"2026-09-20T09:00:24.453414Z"}}}